TimeCST,TemperatureF,Dew PointF,Humidity,Sea Level PressureIn,VisibilityMPH,Wind Direction,Wind SpeedMPH,Gust SpeedMPH,PrecipitationIn,Events,Conditions,WindDirDegrees,DateUTC
12:53 AM,30.9,27.0,85,30.36,10.0,North,3.5,-,N/A,,Clear,10,2012-12-13 06:53:00
1:53 AM,30.0,27.0,88,30.37,10.0,ENE,3.5,-,N/A,,Clear,60,2012-12-13 07:53:00
2:53 AM,30.0,25.0,82,30.37,10.0,East,4.6,-,N/A,,Clear,100,2012-12-13 08:53:00
3:53 AM,30.0,25.0,82,30.36,10.0,SE,4.6,-,N/A,,Clear,140,2012-12-13 09:53:00
4:53 AM,28.9,26.1,89,30.38,10.0,Calm,Calm,-,N/A,,Clear,0,2012-12-13 10:53:00
5:53 AM,28.9,25.0,85,30.39,10.0,Calm,Calm,-,N/A,,Clear,0,2012-12-13 11:53:00
6:53 AM,28.9,25.0,85,30.40,10.0,Calm,Calm,-,N/A,,Clear,0,2012-12-13 12:53:00
7:53 AM,33.1,28.0,82,30.40,10.0,ESE,3.5,-,N/A,,Clear,120,2012-12-13 13:53:00
8:53 AM,37.9,30.9,76,30.41,10.0,Calm,Calm,-,N/A,,Clear,0,2012-12-13 14:53:00
9:53 AM,42.1,30.0,62,30.41,10.0,SSE,5.8,-,N/A,,Clear,150,2012-12-13 15:53:00
10:53 AM,46.0,30.0,54,30.40,10.0,South,4.6,-,N/A,,Clear,180,2012-12-13 16:53:00
11:53 AM,48.9,30.0,48,30.37,10.0,South,6.9,-,N/A,,Clear,190,2012-12-13 17:53:00
12:53 PM,52.0,27.0,38,30.34,10.0,South,4.6,-,N/A,,Clear,190,2012-12-13 18:53:00
1:53 PM,53.1,25.0,34,30.31,10.0,South,4.6,-,N/A,,Clear,190,2012-12-13 19:53:00
2:53 PM,54.0,28.0,37,30.30,10.0,Calm,Calm,-,N/A,,Clear,0,2012-12-13 20:53:00
3:53 PM,53.1,27.0,37,30.29,10.0,Calm,Calm,-,N/A,,Clear,0,2012-12-13 21:53:00
7:53 PM,39.9,32.0,73,30.30,10.0,South,3.5,-,N/A,,Clear,190,2012-12-14 01:53:00
8:53 PM,37.9,32.0,79,30.29,10.0,SE,4.6,-,N/A,,Clear,130,2012-12-14 02:53:00
9:53 PM,37.0,32.0,82,30.29,10.0,SSE,4.6,-,N/A,,Clear,160,2012-12-14 03:53:00
10:53 PM,37.0,34.0,89,30.30,10.0,South,4.6,-,N/A,,Clear,170,2012-12-14 04:53:00